Flag for Germany Weather past 2 weeks in Herford, North Rhine-Westphalia, Germany

Now
63 °F

Partly cloudy.


Feels Like: 63 °F
Forecast: 56 / 80 °F
Wind: 1 mph from Southwest

Location: Bueckeburg

Current Time: Jul 26, 2014 at 1:48:11 AM

Latest Report: Jul 26, 2014 at 12:20 AM


Visibility: 4 mi

Pressure: 29.92 "Hg

Humidity: 94%

Dew point: 61 °F

Location of HerfordLocation

Historic Weather in Herford — Graph

°F

Herford temperature yesterday

Maximum temperature yesterday: 70 °F (at 4:20 PM)
Minimum temperature yesterday: 61 °F (at 12:20 AM)
Average temperature yesterday: 63 °F

Past Weeks' High & Low Weather Summary

 TemperatureHumidityPressure
High91 °F (Jul 19, 4:20 PM)100% (Jul 11, 12:20 AM)30.18 "Hg (Jul 11, 12:20 AM)
Low52 °F (Jul 12, 6:20 AM)28% (Jul 19, 4:20 PM)29.68 "Hg (Jul 13, 6:20 PM)
Average70 °F70%29.97 "Hg
* Reported Jul 11 12:20 AM — Jul 26 12:20 AM, Herford, Weather by CustomWeather, © 2014

Note: Actual official high and low records may vary slightly from our data, if they occured in-between our weather recording intervals... More about our weather records

Advertising

Herford weather history for previous 24 hours

 ConditionsComfort  
Time TempWeatherWind HumidityBarometerVisibility
12:20 AM
Jul 26
63 °FPartly cloudy.1 mph94%29.92 "Hg4 mi
11:20 PM
Jul 25
63 °FPassing clouds.No wind94%29.92 "Hg4 mi
10:20 PM64 °FBroken clouds.5 mph94%29.92 "Hg4 mi
9:20 PM66 °FFog.3 mph94%29.92 "Hg3 mi
8:20 PM66 °FFog.3 mph94%29.92 "Hg3 mi
7:20 PM68 °FPartly sunny.6 mph88%29.95 "Hg4 mi
6:20 PM68 °FPartly sunny.2 mph88%29.95 "Hg4 mi
5:20 PM68 °FPartly sunny.6 mph83%29.95 "HgN/A
4:20 PM70 °FBroken clouds.5 mph78%29.95 "HgN/A
3:20 PM68 °FBroken clouds.7 mph83%29.95 "HgN/A
2:20 PM66 °FBroken clouds.5 mph88%29.98 "Hg6 mi
1:20 PM64 °FLight rain. Fog.2 mph88%29.98 "Hg3 mi
12:20 PM63 °FLight rain. Fog.2 mph94%29.98 "Hg2 mi
11:20 AM63 °FLight rain. Fog.2 mph94%29.98 "Hg3 mi
10:20 AM61 °FLight rain. Fog.2 mph94%29.98 "Hg3 mi
9:20 AM61 °FLight rain. Fog.5 mph100%29.98 "Hg2 mi
8:20 AM61 °FLight rain. Fog.6 mph94%29.98 "Hg2 mi
7:20 AM61 °FLight rain. Fog.3 mph94%30.01 "Hg2 mi
6:47 AM61 °FLight rain. Fog.2 mph94%30.01 "Hg2 mi
6:20 AM61 °FLight rain. Fog.9 mph94%29.98 "Hg2 mi
5:47 AM61 °FLight rain. Fog.7 mph94%30.01 "Hg2 mi
5:20 AM61 °FLight rain. Fog.5 mph94%30.01 "Hg3 mi
4:20 AM61 °FLight rain. Passing clouds.3 mph94%30.01 "Hg4 mi
3:20 AM61 °FLight rain. Mostly cloudy.2 mph94%30.01 "Hg5 mi
2:20 AM61 °FLight rain. Partly cloudy.2 mph94%30.04 "HgN/A
1:20 AM61 °FPassing clouds.3 mph94%30.04 "HgN/A
Weather by CustomWeather, © 2014

See weather overviewHow to use our weather pages